CZ-3B DEB, 40843

Orbit data source: Space-Track

CZ-3B DEB, 40843 is space debris in HEO originally from a launch on Mon, 19 Dec 2011 UTC launched from the Xichang Space Center, China (XSC). Debris objects in space refer to the collection of defunct objects orbiting the Earth. Examples of debris include non-operational satellites, rocket bodies, and fragments generated from explosions, collisions, or faulty payload assembly.

Loading next visibility...
Identifier
40843, 2011-077Y
Orbit
HEO
Country
Flag of CNCN / PRC
Related business
Manufacturer
CALT
Mission
Spacecraft
Bus & Motor
Unknown
Mass
Unknown
Launch date (UTC)
2011-12-19 (14 years ago)
Launch vehicle
Unknown
Launch site
Xichang Space Center, China (XSC)
Object type
Payload
Rocket body
Debris
Shape & HBR
Unknown
Radar Cross Section
Medium (>0.1 m² and <1 m²)

Expand to show TLE details & history
Last TLE update: 23 hours ago

TLE from 23 hours ago
0 CZ-3B DEB
1 40843U 11077Y   25261.09783152  .00002953  00000-0  86916-2 0  9997
2 40843  21.9367 227.9293 7304134  30.2337 356.5984  2.17399488 88314
Epoch: 2025-09-18T02:20Z
TLE epoch observation values (Epoch: 2025-09-18T02:20:52.643Z)
Latitude
0.00012°
Longitude
-164.62228°
Altitude
844.109 km
Speed
9.723 km/s
True Right ascension
15h 11m 26s
True Declination
0° 00' 00"
Sunlit
Object was in daylight at epoch
Visualization orbit readout
Latitude
Unknown
Longitude
Unknown
Altitude
Unknown
Speed
Unknown
Apparent Right ascension
Unknown
Apparent Declination
Unknown
Sunlit
N/A
Visualization observer readout
Local Sidereal Time
18:12:58
Azimuth
Unknown
Elevation
Unknown
Doppler factor
Unknown
Orbital elements
Apogee altitude
37,185.208 km
Perigee altitude
408.735 km
Semi-major axis
25,175.108 km
Eccentricity
0.73041
Inclination
21.9367°
RAAN
227.9293°
Arg. of periapsis
30.2337°
True anomaly
329.32131°
Mean anomaly
356.5984°
Eccentric anomaly
347.64122°
Mean motion
0.54336 °/min
Orbital period
662.55 mins
BSTAR
0.0086916
Loading maneuver chart data...
Computing Atmospheric mass density...
Loading historical data...
Loading historical data...
Loading historical data...
Loading historical data...
Loading historical data...
Loading historical data...
Loading historical data...

Documentation

Showing up to 5 results
|